TITAN 3C TRANSTAGE DEB, 38703

Orbit data source: Space-Track

TITAN 3C TRANSTAGE DEB, 38703 is space debris in GEO originally from a launch on Thu, 26 Sep 1968 UTC launched from the Air Force Eastern Test Range (AFETR). Debris objects in space refer to the collection of defunct objects orbiting the Earth. Examples of debris include non-operational satellites, rocket bodies, and fragments generated from explosions, collisions, or faulty payload assembly.

Not visible in the next 10 days
Identifier
38703, 1968-081AD
Orbit
GEO
Country
Flag of USUS
Related business
Manufacturer
Unknown
Mission
Spacecraft
Bus & Motor
Unknown
Mass
Unknown
Launch date (UTC)
1968-09-26 (57 years ago)
Launch vehicle
Unknown
Launch site
Air Force Eastern Test Range (AFETR)
Object type
Payload
Rocket body
Debris
Shape & HBR
Unknown shape, 1.1 m
Radar Cross Section
Small (<0.1 m²)

Expand to show TLE details & history
Last TLE update: 1 day ago

TLE from 1 day ago
0 TITAN 3C TRANSTAGE DEB
1 38703U 68081AD  25352.94661176 -.00000059  00000-0  00000+0 0  9995
2 38703   2.4335  81.0310 0239982  65.9603 295.9283  1.05420478 45564
Epoch: 2025-12-18T22:43Z
TLE epoch observation values (Epoch: 2025-12-18T22:43:07.256Z)
Latitude
-0°
Longitude
11.84371°
Altitude
33,990.766 km
Speed
3.158 km/s
True Right ascension
05h 21m 40s
True Declination
0° 00' 00"
Sunlit
Object was in daylight at epoch
Visualization orbit readout
Latitude
Unknown
Longitude
Unknown
Altitude
Unknown
Speed
Unknown
Apparent Right ascension
Unknown
Apparent Declination
Unknown
Sunlit
N/A
Visualization observer readout
Local Sidereal Time
22:30:37
Azimuth
Unknown
Elevation
Unknown
Doppler factor
Unknown
Orbital elements
Apogee altitude
35,382.084 km
Perigee altitude
33,424.717 km
Semi-major axis
40,781.538 km
Eccentricity
0.024
Inclination
2.4335°
RAAN
81.031°
Arg. of periapsis
65.9603°
True anomaly
293.42306°
Mean anomaly
295.9283°
Eccentric anomaly
294.67889°
Mean motion
0.26354 °/min
Orbital period
1,366.01 mins
BSTAR
0
Loading maneuver chart data...
Computing Atmospheric mass density...

Documentation

Showing up to 5 results
|